Content
SEND FEEDBACK

Daily
Averages
Monthly
Summary
United States of America

NEW YORK, NEW YORK


Home > North America > United States > New York
Elevation: 131 feet     Latitude: 40 47N     Longitude: 073 58W

WEATHER
 
SELECT A DAY
Number of Records: 145,928;   Date Range: 11/1/95 - 4/19/14
 
SHARE

PRINT THIS DATA

[ ← Previous Day ]
WEATHER ALMANAC - MARCH 17, 2013
[ Next Day → ]
[ °C ]   °F
Weather ElementAverageHighLow
Temperature32.1 °F37 °F (3:51 pm) (1:00 am)
Dewpoint15.1 °F28 °F (1:51 am) (7:00 pm)
Humidity50.1 %82 % (1:51 am)34 % (10:51 pm)
Barometer28.87 in30.30 in (10:51 pm) (7:00 pm)
Wind Speed5.9 mph10.4 mph (9:51 am)
Wind Gust21.9 mph (11:51 am)
Weather ElementAverage
Visibility10 mi
Wind DirectionSE (139.6 °)

Weather ElementTotal
Precipitation---
Heating Degree Days46.5 (Base 65)
Averaged from 24 records on March 17, 2013
WEATHER CONDITIONS BREAKOUT
WIND DIRECTION BREAKOUT
WEATHER BY HOUR - MARCH 17, 2013
[ °C ]   °F
Local TimeTemperatureDewpointHumidityBarometerVisibilityWind DirectionWind SpeedGust SpeedPrecipitationEventsConditions
1:00 AM0.0 °F0.0 °FNorth
1:51 AM33.1 °F28.0 °F82 %29.92 in10.0 miWNW (290°)4.6 mphClear
2:51 AM33.1 °F26.1 °F75 %29.93 in10.0 miWNW (300°)6.9 mphClear
3:51 AM32.0 °F25.0 °F75 %29.96 in10.0 miVariable3.5 mphClear
4:51 AM30.9 °F21.9 °F69 %29.97 in10.0 miVariable5.8 mphClear
5:51 AM30.9 °F21.0 °F67 %30.00 in10.0 miNW (310°)8.1 mphClear
6:51 AM30.0 °F19.0 °F64 %30.04 in10.0 miWNW (290°)6.9 mphClear
7:51 AM28.9 °F15.1 °F56 %30.08 in10.0 miWNW (300°)9.2 mphClear
8:51 AM28.9 °F14.0 °F54 %30.11 in10.0 miVariable5.8 mphClear
9:51 AM30.9 °F15.1 °F52 %30.13 in10.0 miWNW (300°)10.4 mph19.6 mphClear
10:51 AM32.0 °F14.0 °F48 %30.14 in10.0 miNW (310°)8.1 mph20.7 mphClear
11:51 AM33.1 °F14.0 °F46 %30.13 in10.0 miNorth (350°)9.2 mph21.9 mphClear
12:51 PM34.0 °F14.0 °F44 %30.14 in10.0 miVariable4.6 mph19.6 mphClear
1:51 PM34.0 °F15.1 °F46 %30.14 in10.0 miVariable5.8 mphClear
2:51 PM35.1 °F14.0 °F42 %30.14 in10.0 miWNW (290°)5.8 mphClear
3:51 PM37.0 °F15.1 °F41 %30.14 in10.0 miNorthClear
4:51 PM37.0 °F12.9 °F37 %30.15 in10.0 miVariable6.9 mphClear
5:51 PM37.0 °F12.0 °F36 %30.17 in10.0 miNorthClear
6:51 PM36.0 °F12.0 °F37 %30.19 in10.0 miCalmClear
7:51 PM36.0 °F12.0 °F37 %30.22 in10.0 miWNW (300°)8.1 mphClear
8:51 PM36.0 °F12.0 °F37 %30.25 in10.0 miNW (310°)4.6 mphClear
9:51 PM35.1 °F12.0 °F39 %30.27 in10.0 miCalmClear
10:51 PM35.1 °F9.0 °F34 %30.30 in10.0 miVariable4.6 mphClear
11:51 PM34.0 °F9.0 °F35 %30.30 in10.0 miNorthClear
Hourly data recorded from KNYC, located 0.33 miles away from New York, New York







STORIES FROM OUR PARTNERS